SCP
0 0 0 0 0 0 0 0 0 0 0 0 0 0 0 0 0 0 0 0 0 0 0 0 0 0 1 1 1 1 1 1 1 1 1 1 1 1 1 1 1 1 1
0 0 0 0 0 0 0 0 0 0 0 0 0 0 0 0 0 0 0 0 0 0 0 0 0 0 1 1 1 1 1 0 0 1 1 1 1 1 1 1 1 1 1
0 0 0 0 0 0 0 0 0 0 0 0 0 0 0 0 0 0 0 0 0 0 0 0 0 0 1 1 1 0 0 0 0 0 1 1 1 1 1 1 1 1 1
0 0 0 0 0 0 0 0 0 0 0 0 0 0 0 0 0 0 0 0 0 0 0 0 0 0 0 0 0 0 0 0 0 0 1 1 1 1 1 1 1 1 1
0 0 0 0 0 0 0 0 0 0 0 0 0 0 0 0 0 0 0 0 0 0 0 0 0 0 0 0 0 0 0 0 1 1 1 1 1 1 1 1 1 1 1
0 0 0 0 0 0 0 0 0 0 0 0 0 0 0 0 0 0 0 0 0 0 0 0 0 0 0 0 0 0 0 0 1 1 1 0 0 1 1 1 1 1 1
0 0 0 0 0 0 0 0 0 0 0 0 0 0 0 0 0 0 0 0 0 0 0 0 0 0 0 0 0 0 0 0 0 0 0 0 0 0 1 1 1 1 1
0 0 0 0 0 0 0 0 0 0 0 0 0 0 0 0 0 0 0 0 0 0 0 0 0 0 0 0 0 0 0 0 0 0 0 0 0 0 0 0 0 0 1
0 0 0 0 0 0 0 0 0 0 0 0 0 0 0 0 0 0 0 0 0 0 0 0 0 0 0 0 0 0 0 0 0 0 0 0 0 0 0 0 0 0 1
0 0 0 0 0 0 0 0 0 0 0 0 0 0 0 0 0 0 0 0 0 0 0 0 0 0 0 0 0 0 0 0 0 0 0 0 0 0 0 0 0 1 1
0 0 0 0 0 0 0 0 0 0 0 0 0 0 0 0 0 0 0 0 0 0 0 0 0 0 0 0 0 0 0 0 0 0 0 0 0 0 0 0 0 1 1
0 0 0 0 0 0 0 0 0 0 0 0 0 0 0 0 0 0 0 0 0 0 0 0 0 0 0 0 0 0 0 0 0 0 0 0 1 1 0 0 0 0 1
0 0 0 0 0 0 0 0 0 0 0 0 0 0 0 0 0 0 0 0 0 0 0 0 0 0 0 0 0 0 0 0 0 0 0 0 0 0 0 0 0 0 1
0 0 0 0 0 0 0 0 0 0 0 0 0 0 0 0 0 0 0 0 0 0 0 0 0 0 0 0 0 0 0 0 0 0 0 0 0 0 0 0 0 0 0
0 0 0 0 0 0 0 0 0 0 0 0 0 0 0 0 0 0 0 0 0 0 0 0 0 0 0 0 0 0 0 0 0 0 0 0 0 0 0 0 0 0 0
0 0 0 0 0 0 0 0 0 0 0 0 0 0 0 0 0 0 0 0 0 0 0 0 0 0 0 0 0 0 0 0 0 0 0 0 0 0 0 0 0 0 0
0 0 0 0 0 0 0 0 0 0 0 0 0 0 0 0 0 0 0 0 0 0 0 0 0 0 0 0 0 0 0 0 0 0 0 0 0 0 0 0 0 0 0
0 0 0 0 0 0 0 0 0 0 0 0 0 0 0 0 0 0 0 0 0 0 0 0 0 0 0 0 0 0 0 0 0 0 0 0 0 0 0 0 0 0 0
0 0 0 0 0 0 0 0 0 0 0 0 0 0 0 0 0 0 0 0 0 0 0 0 0 0 0 0 0 0 0 0 0 0 0 0 0 0 0 0 0 0 0
0 0 0 0 0 0 0 0 0 0 0 0 0 0 0 0 0 0 0 0 0 0 0 0 0 0 0 0 0 0 0 0 0 0 0 0 0 0 0 0 0 0 0
0 0 0 0 0 0 0 0 0 0 0 0 0 0 0 0 0 0 0 0 0 0 0 0 0 0 0 0 0 0 0 0 0 0 0 0 0 0 0 0 0 0 0
0 0 0 0 0 0 0 0 0 0 0 0 0 0 0 0 0 0 0 0 0 0 0 0 0 0 0 0 0 0 0 0 0 0 0 0 0 0 0 0 0 0 0
0 0 0 0 0 0 0 0 0 0 0 0 0 0 0 0 0 0 0 0 0 0 0 0 0 0 0 0 0 0 0 0 0 0 0 0 0 0 0 0 0 0 0
0 0 0 0 0 0 0 0 0 0 0 0 0 0 0 0 0 0 0 0 0 0 0 0 0 0 0 0 0 0 0 0 0 0 0 0 0 0 0 0 0 0 0
0 0 0 0 0 0 0 0 0 0 0 0 0 0 0 0 0 0 0 0 0 0 0 0 0 0 0 0 0 0 0 0 0 0 0 0 0 0 0 0 0 0 0
0 0 0 0 0 0 0 0 0 0 0 0 0 0 0 0 0 0 0 0 0 0 0 0 0 0 0 0 0 0 0 0 0 0 0 0 0 0 0 0 0 0 0
Wind_Speed
3 2 2 2 2 3 3 4 4 4 4 4 4 4 3 3 2 2 2 1 1 0 1 1 2 2 2 2 2 2 2 2 2 1 1 1 2 2 2 2 3 4 4
3 3 2 2 2 3 3 4 4 4 4 4 4 4 3 3 2 2 2 1 1 0 0 1 1 1 2 2 2 2 2 2 2 2 2 1 1 1 2 2 2 2 3
4 3 3 2 2 2 3 4 4 3 3 3 3 3 3 2 2 2 2 1 1 1 0 1 1 2 2 2 2 2 2 2 2 2 2 1 1 1 2 2 3 2 3
4 3 3 2 2 3 3 3 3 3 3 3 3 3 3 3 2 2 2 1 1 0 0 1 1 1 2 2 2 3 2 3 3 3 3 2 2 2 2 2 2 2 3
5 4 3 2 2 2 2 2 2 3 3 3 3 2 3 3 3 3 2 1 1 0 0 0 1 1 3 3 3 2 3 3 3 3 3 3 2 2 2 2 3 3 3
5 4 3 3 2 2 2 2 2 2 3 3 3 3 2 2 4 4 4 1 1 0 1 0 0 2 1 2 3 3 4 4 3 3 3 4 4 3 2 3 3 3 3
6 5 4 3 2 2 2 2 2 2 2 3 2 2 2 2 3 3 4 3 1 1 1 0 0 0 2 2 4 6 5 6 6 6 5 5 4 3 4 4 4 4 4
7 6 5 4 3 2 2 2 2 2 2 2 3 3 2 2 3 3 4 3 1 1 1 1 1 1 1 2 3 3 3 3 4 6 5 5 4 4 4 5 5 4 4
7 6 5 4 3 3 3 3 3 2 2 2 2 2 2 1 1 2 5 2 1 1 1 1 2 1 2 3 3 3 3 2 3 4 5 5 5 5 5 4 5 4 4
7 6 5 4 4 4 3 3 3 2 3 3 2 3 3 2 2 2 5 3 2 1 1 1 1 2 2 3 4 3 3 3 3 3 5 6 6 6 8 8 6 5 4
7 6 5 5 4 4 3 3 3 3 3 3 3 3 2 2 0 1 3 4 3 2 2 1 1 1 2 3 6 4 3 5 4 4 4 3 3 3 4 5 5 5 6
7 6 6 5 4 3 3 3 3 3 3 3 3 3 2 1 1 0 2 3 5 3 3 2 1 2 2 3 3 3 4 5 4 3 3 3 3 3 3 4 5 5 6
7 7 6 5 4 3 3 3 3 3 3 3 2 2 2 1 1 2 3 3 4 4 2 2 3 2 4 3 2 3 4 4 3 3 3 3 3 3 3 3 4 4 5
8 7 6 5 4 4 2 2 2 2 2 2 2 3 2 2 1 2 2 2 3 4 3 2 3 3 3 2 2 2 2 2 3 3 3 3 3 3 3 3 3 3 4
8 7 6 5 4 3 3 1 1 1 3 3 3 3 3 3 4 6 5 3 3 2 2 1 1 1 1 1 1 2 2 2 2 3 3 3 3 3 3 3 3 4 4
7 7 5 5 4 4 4 4 4 3 5 4 5 5 2 4 5 4 4 4 4 2 1 0 1 1 2 3 3 3 2 3 3 4 4 3 4 4 4 3 3 4 5
7 6 5 5 5 5 4 4 5 5 4 5 5 5 4 5 5 4 3 3 2 1 0 1 2 2 2 3 3 3 3 4 4 4 4 4 4 4 4 4 4 4 5
7 6 5 5 4 4 4 4 3 3 4 4 5 6 5 5 5 4 2 1 2 3 3 2 3 3 3 3 3 3 3 3 3 4 4 4 4 4 5 5 5 5 6
7 6 5 5 4 4 4 3 3 3 3 3 3 5 4 4 4 4 2 2 3 3 3 3 3 3 3 3 3 3 4 4 4 4 4 5 5 5 5 5 6 6 7
6 5 5 5 5 5 4 4 4 3 3 2 2 2 2 2 2 4 4 3 3 3 3 3 3 4 4 4 3 3 3 4 5 5 5 5 5 5 6 7 6 6 6
6 7 7 5 5 4 4 4 4 4 3 3 3 4 3 2 3 3 3 3 3 3 3 3 3 3 3 3 4 4 5 4 4 5 5 6 6 6 6 6 7 7 7
6 6 6 5 5 5 5 4 4 4 4 4 4 4 3 2 2 3 3 3 3 2 2 2 2 2 3 3 4 4 4 5 5 6 6 6 6 7 7 7 7 7 8
6 6 6 5 5 6 5 5 5 4 4 4 4 3 3 2 2 2 2 2 2 2 2 2 2 2 3 3 4 4 4 5 6 6 7 7 7 7 7 8 9 9 9
6 7 7 6 6 5 5 5 5 5 4 4 4 3 3 2 2 2 1 1 1 1 2 2 2 3 4 4 3 4 5 6 8 7 9 8 8 7 7 7 8 10 9
6 6 6 6 6 5 5 5 5 5 5 4 3 3 3 2 2 1 1 1 1 1 2 3 2 3 5 5 5 5 6 7 7 8 9 8 8 8 8 9 8 9 9
6 6 5 5 5 5 5 5 5 5 4 4 3 3 2 2 1 1 0 0 1 2 2 2 3 5 6 5 6 6 6 7 8 10 9 8 8 8 9 8 10 10 10
Wind_Direction
233 243 255 280 306 314 324 336 332 329 333 336 340 342 344 341 335 330 327 347 312 306 234 245 246 255 238 225 226 226 239 251 242 266 286 244 227 235 219 240 236 229 207
220 238 256 286 292 303 321 329 330 330 330 335 339 341 345 343 338 334 337 335 333 327 235 246 247 229 247 246 235 228 227 238 235 247 255 263 266 248 245 246 246 237 238
207 227 242 256 285 302 318 325 327 329 330 334 332 337 336 336 333 328 324 312 303 298 282 250 253 228 229 224 230 230 230 231 236 244 263 286 269 250 250 246 238 238 245
206 219 234 253 276 291 305 316 323 330 332 336 330 335 333 333 326 322 313 310 301 342 310 280 271 259 252 240 234 227 227 229 227 229 237 243 250 254 252 254 253 236 239
200 211 221 227 243 279 301 308 319 324 322 332 334 337 342 337 355 342 327 331 333 60 32 347 356 355 352 321 295 263 237 233 233 233 236 237 237 239 253 268 269 268 255
197 202 207 232 241 277 290 303 323 313 314 330 338 345 351 1 19 350 319 328 329 60 72 46 153 197 196 234 282 305 301 270 253 245 243 243 250 251 257 258 266 265 262
195 193 204 218 229 259 273 284 291 291 313 318 335 338 344 15 11 344 314 305 306 328 354 16 13 30 251 237 209 215 231 244 262 275 267 261 260 256 257 255 250 258 269
195 196 198 219 230 247 265 276 280 293 304 305 325 329 330 1 5 332 296 272 277 271 284 284 276 293 326 298 264 253 257 238 238 249 264 273 276 271 259 263 269 264 272
195 201 198 207 223 239 251 262 275 285 289 288 306 305 299 317 22 325 292 273 264 264 276 308 304 299 53 311 268 263 271 256 211 245 283 288 296 274 261 252 245 245 261
195 201 198 206 218 230 244 259 267 271 278 281 285 287 293 308 35 337 295 274 275 270 243 213 97 336 2 301 274 270 274 289 284 247 238 231 240 229 220 238 246 247 258
189 194 194 201 212 225 237 245 254 261 272 277 283 280 284 302 324 340 299 285 290 289 286 280 60 88 314 295 287 290 314 306 284 277 276 271 258 249 235 239 241 247 254
182 188 193 200 207 212 222 239 250 257 259 265 274 280 275 247 281 341 283 281 303 290 291 302 29 66 302 286 284 330 310 283 269 268 272 277 279 277 271 270 264 255 255
179 185 190 193 194 207 218 223 235 242 262 275 280 287 293 303 180 198 240 250 262 270 294 17 2 323 278 242 216 277 271 264 274 276 283 293 302 302 298 290 282 274 272
182 187 186 193 192 188 201 229 242 263 269 276 286 295 302 303 332 327 279 234 215 232 242 182 202 231 250 287 273 245 270 307 301 293 298 298 294 286 280 284 286 287 280
185 187 186 186 186 182 159 76 284 44 359 319 313 313 317 322 13 358 325 324 326 335 306 260 270 279 291 323 331 338 326 317 301 300 299 299 298 293 291 291 287 286 283
186 186 186 183 180 180 165 140 79 66 65 47 14 347 19 25 14 15 15 12 8 337 270 213 23 7 356 353 351 350 346 343 335 326 319 316 310 308 306 300 289 284 285
187 184 183 187 182 184 184 183 163 143 122 74 54 43 32 22 21 20 28 36 32 3 75 42 28 18 4 357 354 350 346 344 336 327 323 322 318 312 307 302 298 293 287
185 179 181 181 185 188 188 191 191 187 168 137 100 75 62 54 42 27 1 157 89 71 50 38 28 19 12 4 357 353 349 345 338 335 333 330 325 317 313 309 304 304 301
181 177 177 177 179 181 181 183 182 183 173 153 138 119 108 103 86 50 30 55 62 61 55 47 35 24 15 11 3 357 353 350 347 340 338 333 328 322 317 313 309 310 300
171 157 167 171 172 174 175 175 172 168 162 152 136 114 123 124 88 75 66 59 59 56 50 45 38 27 19 14 6 358 354 355 351 344 342 335 329 324 320 317 315 312 307
164 157 168 174 169 166 165 163 158 154 144 129 105 72 35 98 88 81 77 71 63 56 47 38 34 25 16 6 359 355 354 353 350 342 337 333 330 325 320 315 314 312 311
165 164 169 166 160 157 154 153 149 145 142 135 126 119 119 119 98 91 82 73 62 51 39 26 21 25 13 0 354 350 348 347 346 340 334 329 326 322 321 319 319 318 314
163 160 159 155 152 148 158 155 152 150 146 142 138 134 131 118 107 96 86 73 60 45 30 14 7 10 6 360 356 348 344 344 337 330 324 321 318 316 316 315 313 313 312
160 160 157 156 157 163 161 158 155 153 152 151 149 145 137 129 123 111 95 73 48 31 18 6 360 354 351 347 343 346 352 348 335 325 322 316 313 311 310 309 309 310 310
159 159 160 161 163 164 163 162 161 160 161 162 159 155 153 152 147 139 113 71 11 356 350 341 338 339 335 332 332 341 359 348 332 323 315 309 308 309 308 308 306 306 305
160 161 162 162 164 167 168 167 166 165 166 166 166 165 167 170 172 173 188 306 314 315 318 322 326 324 320 320 337 344 335 324 318 312 305 302 301 301 305 302 303 302 301